Hourly Data Report for March 01, 2006

TORONTO CITY
ONTARIO

43°40'00.000" N
79°24'00.000" W
112.50 m
6158355
71508
XTO

Download Data

Hourly Data (March 2006)
Hourly Data Report for March 1, 2006
TIME
LST
Temp Definition
°C
Dew Point Definition
°C
Rel Hum Definition
%
Precip. Amount Definition
mm

Wind Dir Definition
10's deg

Wind Spd Definition
km/h
Visibility Definition
km
Stn Press Definition
kPa
Hmdx Definition


Wind Chill Definition


Weather Definition


00:00 -4.7 -9.6 69   LegendMM LegendMM   99.75     LegendNANA
01:00 -4.4 -11.6 57   LegendMM LegendMM   99.78     LegendNANA
02:00 -5.0 -12.3 57   LegendMM LegendMM   99.83     LegendNANA
03:00 -5.6 -12.4 59   LegendMM LegendMM   99.88     LegendNANA
04:00 -5.9 -12.9 58   LegendMM LegendMM   99.95     LegendNANA
05:00 -6.8 -13.1 61   LegendMM LegendMM   99.98     LegendNANA
06:00 -7.5 -13.5 62   LegendMM LegendMM   100.03     LegendNANA
07:00 -7.8 -13.7 63   LegendMM LegendMM   100.11     LegendNANA
08:00 -7.9 -16.7 49   LegendMM LegendMM   100.14     LegendNANA
09:00 -6.9 -15.1 52   LegendMM LegendMM   100.17     LegendNANA
10:00 -6.4 -14.4 53   LegendMM LegendMM   100.24     LegendNANA
11:00 -4.1 -13.4 48   LegendMM LegendMM   100.23     LegendNANA
12:00 -3.2 -12.7 48   LegendMM LegendMM   100.15     LegendNANA
13:00 -0.8 -11.0 46   LegendMM LegendMM   100.07     LegendNANA
14:00 -0.9 -11.2 45   LegendMM LegendMM   100.01     LegendNANA
15:00 -1.0 -10.4 49   LegendMM LegendMM   99.97     LegendNANA
16:00 -1.5 -12.1 44   LegendMM LegendMM   99.97     LegendNANA
17:00 -1.8 -11.0 49   LegendMM LegendMM   99.96     LegendNANA
18:00 -2.0 -10.8 51   LegendMM LegendMM   99.93     LegendNANA
19:00 -2.3 -10.0 55   LegendMM LegendMM   99.95     LegendNANA
20:00 -2.9 -9.5 60   LegendMM LegendMM   99.93     LegendNANA
21:00 -3.3 -9.1 64   LegendMM LegendMM   99.92     LegendNANA
22:00 -3.9 -9.1 67   LegendMM LegendMM   99.85     LegendNANA
23:00 -4.8 -9.4 70   LegendMM LegendMM   99.82     LegendNANA

Notes on Data Quality.

Legend

  • E = Estimated
  • M = Missing
  • NA = Not Available*
  • [empty] = Indicates an unobserved value
Date modified: